Hourly Data Report for October 16, 2015

All times are specified in Local Standard Time (LST). Add 1 hour to adjust for Daylight Saving Time where and when it is observed.

BAKER LAKE A
NUNAVUT

64°17'56.000" N
96°04'40.000" W
18.60 m
2300503
71926
YBK

Download Data

Hourly Data (October 2015)
Hourly Data Report for October 16, 2015
Temp Definition
°C
Dew Point Temp Definition
°C
Rel Hum Definition
%
Wind Dir Definition
10's deg

Wind Spd Definition
km/h
Visibility Definition
km
Stn Press Definition
kPa
Hmdx Definition


Wind Chill Definition


Weather Definition


TIME
00:00 Legend Double Dagger -7.9 -11.9 73 26 14 24.1 101.76   -14 Snow
01:00 Legend Double Dagger -7.3 -9.7 83 27 19 24.1 101.77   -14 Snow
02:00 Legend Double Dagger -6.8 -10.4 76 29 19 24.1 101.80   -14 Snow
03:00 Legend Double Dagger -6.8 -10.9 73 30 25 24.1 101.82   -15 Snow
04:00 Legend Double Dagger -7.0 -9.6 82 29 28 24.1 101.83   -15 Snow
05:00 Legend Double Dagger -7.0 -10.1 79 29 23 24.1 101.88   -15 Snow
06:00 Legend Double Dagger -7.3 -11.2 74 29 25 24.1 101.88   -15 Snow
07:00 Legend Double Dagger -7.5 -9.9 83 28 19 32.2 101.89   -15 Snow
08:00 Legend Double Dagger -7.2 -9.9 81 29 17 32.2 101.90   -14 Snow
09:00 Legend Double Dagger -6.5 -9.4 80 30 22 24.1 101.90   -14 Snow
10:00 Legend Double Dagger -6.1 -8.9 81 31 26 32.2 101.90   -14 Snow
11:00 Legend Double Dagger -5.8 -8.9 79 32 28 32.2 101.90   -14 Snow
12:00 Legend Double Dagger -5.4 -8.3 80 31 26 32.2 101.93   -13 Snow
13:00 Legend Double Dagger -5.4 -8.3 80 30 28 32.2 101.93   -13 Snow
14:00 Legend Double Dagger -5.2 -8.3 79 29 26 32.2 101.95   -13 Snow
15:00 Legend Double Dagger -5.3 -9.1 75 28 31 32.2 101.94   -14 Mostly Cloudy
16:00 Legend Double Dagger -6.4 -9.3 80 27 25 32.2 101.94   -14 LegendNANA
17:00 Legend Double Dagger -5.7 -8.6 80 28 27 32.2 101.92   -14 LegendNANA
18:00 Legend Double Dagger -5.6 -8.2 82 28 26 24.1 101.89   -13 Cloudy
19:00 Legend Double Dagger -5.7 -8.0 84 27 27 24.1 101.85   -14 LegendNANA
20:00 Legend Double Dagger -4.9 -6.6 88 27 28 24.1 101.78   -13 Snow
21:00 Legend Double Dagger -4.3 -6.0 88 27 29 24.1 101.72   -12 Snow
22:00 Legend Double Dagger -4.2 -5.9 88 28 25 24.1 101.71   -11 Snow
23:00 Legend Double Dagger -4.3 -6.0 88 29 22 24.1 101.69   -11 Snow

Notes on Data Quality.

Legend

  • E = Estimated
  • M = Missing
  • NA = Not Available
  • ‡ = Partner data that is not subject to review by the National Climate Archives
Date modified: